World > North America > United States > Kansas   City of Wichita, Kansas

Hourly Wichita, KS Regional Weather

Feedback E-mail the Weather

Latest News

Wichita, KS Weather Maps

°F °C°F °C
Wichita Weather Map
UTC Time: 5/26/2022, 02:06
Your Time:

Wichita, KS Regional Weather

Expires:202205260300;;586759
ASUS43 KEAX 260205
RWREAX

WEATHER ROUNDUP FOR EASTERN KANSAS AND NORTHWEST MISSOURI
NATIONAL WEATHER SERVICE KANSAS CITY/PLEASANT HILL MO
900 PM CDT WED MAY 25 2022


IAZ060-094-KSZ022-034>040-054-083-096-NEZ052-066-093-260300- 
...KANSAS...SOUTHEAST NEBRASKA AND IOWA...
  
CITY           SKY/WX    TMP DP  RH WIND       PRES   REMARKS
TOPEKA         CLOUDY    57  55  93 NW3       29.64R                  
MANHATTAN      LGT RAIN  53  51  93 MISG      29.67F                  
EMPORIA        LGT RAIN  54  51  90 NW8       29.65R FOG              
OTTAWA         CLOUDY    59  59 100 S13G23    29.63S                  
CHANUTE        LGT RAIN  58  55  90 S9        29.66F FOG              
SALINA         HVY RAIN  51  50  96 N13       29.73S FOG              
WICHITA        LGT RAIN  52  50  93 NW18      29.71S FOG              
OMAHA          LGT RAIN  51  49  92 N24G37    29.69R                  
LINCOLN        RAIN      51  48  89 N18G26    29.74R                  
FALLS CITY     CLOUDY    55  55 100 N12G22    29.64R                  
LAMONI         CLOUDY    57  56  96 N8        29.66R                  
DES MOINES     CLOUDY    56  55  97 N16G25    29.67S                  

$$

  

SKY/WX - Weather  TMP - Temperature  DP - Dew Point  RH - Humidity
WIND - Wind Direction/Speed PRES - Barometric Pressure VSB - Visibility
WCI - Wind Chill Index E13G22 Wind - East Wind 13 mph/Gusts of 22 mph

Trending Headlines

Wichita Radar Loop



Wichita Quick Facts


National Two Day Weather Forecast


E-mail the Wichita Weather Forecast

Voice your opinion or tell us about page issues...